Shaktoolik Airport, AK

7:00 PM AKDT on April 19, 2018 (GMT -0800)
Shaktoolik Airport

Weather History for PFSH - August, 2014

Change the Weather History Date:

Sunday, August 10, 2014

  Actual Average (PAUN) Record (PAUN)
Temperature  
Mean Temperature 65 °F -  
Max Temperature 75 °F 62 °F 80 °F (2003)
Min Temperature 55 °F 46 °F 33 °F (1969)
Growing Degree Days 15 (Base 50)    
Moisture  
Dew Point 55 °F    
Average Humidity 70    
Maximum Humidity 87    
Minimum Humidity 45    
Precipitation  
Precipitation 0.00 in - - ()
Sea Level Pressure  
Sea Level Pressure 29.68 in    
Wind  
Wind Speed 11 mph (North)    
Max Wind Speed 16 mph    
Max Gust Speed 22 mph    
Visibility 10 miles    
Events      
Averages and records for this station are not official NWS values.
T = Trace of Precipitation, MM = Missing Value Source: NWS Daily Summary

Daily Weather History Graph

Daily Weather History Graph

Search for Another Location

Airport or City:

Astronomy

Aug. 10, 2014 Rise Set
Actual Time 6:19 AM AKDT 11:18 PM AKDT
Civil Twilight 5:06 AM AKDT 12:29 AM AKDT
Nautical Twilight 3:22 AM AKDT 2:17 AM AKDT
Astronomical Twilight Sun does not set Sun does not set
Moon 10:32 PM AKDT (8/10) 6:52 AM AKDT (8/10)
Length of Visible Light 19h 23m
Length of Day
16h 59m
Full, 100% of the Moon is Illuminated
Aug 10
Full
Aug 17
Last Quarter
Aug 25
New
Sep 2
First Quarter
Sep 8
Full

Hourly Weather History & Observations

Time (AKDT) Temp. Dew Point Humidity Pressure Visibility Wind Dir Wind Speed Gust Speed Precip Events Conditions
12:58 AM 62.1 °F 55.9 °F 80% 29.64 in 10.0 mi North 16.1 mph - N/A   Overcast
2:58 AM 57.0 °F 53.1 °F 87% 29.67 in 10.0 mi NNE 9.2 mph - N/A   Clear
3:58 AM 57.9 °F 54.0 °F 87% 29.67 in 10.0 mi North 12.7 mph - N/A   Clear
4:58 AM 57.0 °F 51.1 °F 81% 29.68 in 10.0 mi North 12.7 mph - N/A   Clear
5:58 AM 55.9 °F 51.1 °F 84% 29.66 in 10.0 mi NNE 8.1 mph - N/A   Scattered Clouds
6:58 AM 57.9 °F 53.1 °F 84% 29.68 in 10.0 mi NNE 9.2 mph - N/A   Overcast
7:58 AM 60.1 °F 55.9 °F 86% 29.69 in 10.0 mi North 11.5 mph - N/A   Overcast
8:58 AM 61.0 °F 55.0 °F 81% 29.69 in 10.0 mi Variable 6.9 mph - N/A   Scattered Clouds
9:58 AM 63.0 °F 55.9 °F 78% 29.69 in 10.0 mi NNE 8.1 mph - N/A   Clear
10:58 AM 68.0 °F 55.0 °F 63% 29.69 in 10.0 mi ENE 6.9 mph - N/A   Clear
11:58 AM 70.0 °F 52.0 °F 53% 29.70 in 10.0 mi North 8.1 mph - N/A   Clear
12:58 PM 71.1 °F 55.0 °F 57% 29.70 in 10.0 mi North 12.7 mph 16.1 mph N/A   Clear
1:58 PM 72.0 °F 55.0 °F 55% 29.70 in 10.0 mi North 15.0 mph 18.4 mph N/A   Clear
2:58 PM 72.0 °F 55.9 °F 57% 29.69 in 10.0 mi North 16.1 mph 21.9 mph N/A   Clear
3:58 PM 73.9 °F 55.0 °F 52% 29.69 in 10.0 mi North 9.2 mph 17.3 mph N/A   Clear
4:58 PM 75.9 °F 53.1 °F 45% 29.69 in 10.0 mi Variable 3.5 mph - N/A   Clear
5:58 PM 72.0 °F 59.0 °F 64% 29.68 in 10.0 mi West 9.2 mph - N/A   Partly Cloudy
6:58 PM 70.0 °F 59.0 °F 68% 29.68 in 10.0 mi West 5.8 mph - N/A   Clear
8:58 PM 72.0 °F 57.9 °F 61% 29.67 in 10.0 mi WNW 5.8 mph - N/A   Clear
9:58 PM 71.1 °F 60.1 °F 68% 29.67 in 10.0 mi North 4.6 mph - N/A   Clear
10:58 PM 64.9 °F 57.9 °F 78% 29.68 in 10.0 mi NNE 9.2 mph - N/A   Scattered Clouds